Location: Chuathbaluk
(61.5726°N, 159.2454°W)
Time: 14:05:17
(UTC+00:00)

XW-2F - Pass Details

Date: 23 January 2021
Orbit: 500 x 520 km, 97.5° (Epoch: 01 March)

Event Time Altitude Azimuth Distance (km) Brightness Sun altitude
Rises 15:15:21 0° 28° (NNE) 2,664 ? -28.0°
Reaches altitude 10° 15:19:26 10° 71° (ENE) 1,769 ? -27.5°
Maximum altitude 15:20:03 10° 81° (E) 1,748 ? -27.4°
Drops below altitude 10° 15:20:39 10° 90° (E) 1,766 ? -27.3°
Sets 15:24:43 0° 133° (SE) 2,647 ? -26.9°
